Maribor, Slovenia

8:01 AM CET on February 08, 2016 (GMT +0100)
Maribor

Weather History for LJMB - October, 2012

Change the Weather History Date:

Friday, October 12, 2012

  Actual Average (LOWG) Record (LOWG)
Temperature  
Mean Temperature 51 °F -  
Max Temperature 55 °F 60 °F 72 °F (2014)
Min Temperature 47 °F 43 °F 35 °F (2010)
Degree Days  
Heating Degree Days 14    
Growing Degree Days 1 (Base 50)    
Moisture  
Dew Point 48 °F    
Average Humidity 87    
Maximum Humidity 94    
Minimum Humidity 75    
Precipitation  
Precipitation 0.00 in - - ()
Sea Level Pressure  
Sea Level Pressure 29.91 in    
Wind  
Wind Speed 2 mph ()    
Max Wind Speed 6 mph    
Max Gust Speed -    
Visibility 3.2 miles    
Events Rain    
Averages and records for this station are not official NWS values.
T = Trace of Precipitation, MM = Missing Value Source: Averaged Metar Reports

Daily Weather History Graph

Daily Weather History Graph

Search for Another Location

Airport or City:

Trip Planner

Search our weather history database for the weather conditions in past years. The results will help you decide how hot, cold, wet, or windy it might be!

Date:

Astronomy

Oct. 12, 2012 Rise Set
Actual Time 7:10 AM CEST 6:15 PM CEST
Civil Twilight 6:40 AM CEST 6:45 PM CEST
Nautical Twilight 6:05 AM CEST 7:20 PM CEST
Astronomical Twilight 5:30 AM CEST 7:55 PM CEST
Moon 3:23 AM CEST (10/12) 4:24 PM CEST (10/12)
Length of Visible Light 12h 05m
Length of Day
11h 04m
Waning Crescent, 12% of the Moon is Illuminated
Oct 12
Waning Crescent
Oct 15
New
Oct 22
First Quarter
Oct 29
Full
Nov 7
Last Quarter

Hourly Weather History & Observations

Time (CEST) Temp. Dew Point Humidity Pressure Visibility Wind Dir Wind Speed Gust Speed Precip Events Conditions
12:00 AM 51.8 °F 46.4 °F 82% 29.92 in 5.6 mi South 2.3 mph - N/A   Mostly Cloudy
12:30 AM 51.8 °F 46.4 °F 82% 29.92 in 5.6 mi South 3.5 mph - N/A   Overcast
1:00 AM 51.8 °F 46.4 °F 82% 29.92 in 5.6 mi South 4.6 mph - N/A   Overcast
1:30 AM 51.8 °F 46.4 °F 82% 29.92 in 5.0 mi SSE 4.6 mph - N/A   Mostly Cloudy
2:00 AM 50.0 °F 46.4 °F 87% 29.89 in 4.3 mi South 2.3 mph - N/A   Unknown
2:30 AM 50.0 °F 46.4 °F 87% 29.89 in 4.3 mi SSW 1.2 mph - N/A   Scattered Clouds
3:00 AM 50.0 °F 46.4 °F 87% 29.89 in 4.3 mi SSW 2.3 mph - N/A   Overcast
4:00 AM 48.2 °F 46.4 °F 93% 29.89 in 4.3 mi Variable 2.3 mph - N/A   Mostly Cloudy
4:30 AM 50.0 °F 46.4 °F 87% 29.86 in 4.3 mi Variable 1.2 mph - N/A   Overcast
5:00 AM 48.2 °F 44.6 °F 87% 29.89 in 3.1 mi Variable 2.3 mph - N/A   Overcast
5:30 AM 48.2 °F 46.4 °F 93% 29.89 in 3.7 mi NNW 1.2 mph - N/A   Overcast
6:00 AM 48.2 °F 46.4 °F 93% 29.89 in 3.7 mi NNW 2.3 mph - N/A   Overcast
6:30 AM 48.2 °F 46.4 °F 93% 29.89 in 3.7 mi North 2.3 mph - N/A   Overcast
7:00 AM 48.2 °F 46.4 °F 93% 29.89 in 3.7 mi Variable 1.2 mph - N/A   Overcast
7:30 AM 48.2 °F 46.4 °F 93% 29.89 in 3.7 mi Variable 2.3 mph - N/A   Overcast
8:00 AM 48 °F 46 °F 89% 29.91 in 2 mi North 2.2 mph - -   Mist
8:00 AM 48.2 °F 46.4 °F 93% 29.89 in 3.7 mi North 2.3 mph - N/A   Overcast
8:30 AM 48.2 °F 46.4 °F 93% 29.89 in 3.7 mi NNW 2.3 mph - N/A   Overcast
9:00 AM 50.0 °F 46.4 °F 87% 29.89 in 3.7 mi North 3.5 mph - N/A   Overcast
9:30 AM 50.0 °F 46.4 °F 87% 29.92 in 3.7 mi Variable 2.3 mph - N/A   Overcast
10:00 AM 51.8 °F 46.4 °F 82% 29.92 in 3.7 mi Variable 2.3 mph - N/A   Overcast
11:00 AM 53 °F 47 °F 75% 29.93 in 2 mi Calm Calm - -   Mist
11:00 AM 53.6 °F 48.2 °F 82% 29.92 in 3.7 mi Calm Calm - N/A   Overcast
11:30 AM 53.6 °F 48.2 °F 82% 29.92 in 3.7 mi WNW 1.2 mph - N/A   Overcast
12:00 PM 53.6 °F 48.2 °F 82% 29.92 in 4.3 mi Variable 1.2 mph - N/A   Overcast
12:30 PM 55.4 °F 48.2 °F 77% 29.92 in 4.3 mi Variable 1.2 mph - N/A   Overcast
1:00 PM 53.6 °F 48.2 °F 82% 29.92 in 5.0 mi Variable 2.3 mph - N/A   Overcast
1:30 PM 55.4 °F 48.2 °F 77% 29.89 in 5.0 mi ESE 3.5 mph - N/A   Overcast
2:00 PM 54 °F 49 °F 76% 29.91 in 2 mi East 2.2 mph - -   Mist
2:00 PM 55.4 °F 48.2 °F 77% 29.89 in 5.0 mi Variable 2.3 mph - N/A   Overcast
2:30 PM 55.4 °F 48.2 °F 77% 29.89 in 4.3 mi Variable 2.3 mph - N/A   Overcast
3:00 PM 55.4 °F 48.2 °F 77% 29.89 in 4.3 mi Variable 2.3 mph - N/A   Overcast
3:30 PM 55.4 °F 50.0 °F 82% 29.89 in 4.3 mi SE 5.8 mph - N/A   Overcast
4:00 PM 53.6 °F 50.0 °F 88% 29.89 in 3.7 mi ESE 4.6 mph - N/A   Overcast
4:30 PM 53.6 °F 50.0 °F 88% 29.89 in 3.1 mi ESE 4.6 mph - N/A   Overcast
5:00 PM 54 °F 49 °F 79% 29.91 in 2 mi East 4.5 mph - -   Mist
5:00 PM 53.6 °F 50.0 °F 88% 29.89 in 2.5 mi East 3.5 mph - N/A   Overcast
5:30 PM 53.6 °F 50.0 °F 88% 29.92 in 2.5 mi ESE 3.5 mph - N/A   Overcast
6:00 PM 53.6 °F 50.0 °F 88% 29.92 in 1.2 mi Variable 2.3 mph - N/A   Overcast
6:30 PM 51.8 °F 50.0 °F 94% 29.92 in 1.2 mi Variable 1.2 mph - N/A   Overcast
7:00 PM 51.8 °F 50.0 °F 94% 29.92 in 1.6 mi North 2.3 mph - N/A   Drizzle
7:30 PM 51.8 °F 50.0 °F 94% 29.92 in 1.6 mi NE 2.3 mph - N/A   Overcast
8:00 PM 52 °F 50 °F 92% 29.94 in 1 mi NE 2.2 mph - - Rain Light Drizzle
8:00 PM 51.8 °F 50.0 °F 94% 29.92 in 1.6 mi NE 2.3 mph - N/A   Light Drizzle
8:30 PM 51.8 °F 50.0 °F 94% 29.95 in 1.2 mi NE 2.3 mph - N/A   Light Drizzle
9:00 PM 51.8 °F 50.0 °F 94% 29.95 in 1.2 mi NNE 3.5 mph - N/A   Light Drizzle
9:30 PM 51.8 °F 50.0 °F 94% 29.95 in 1.9 mi NNE 4.6 mph - N/A   Overcast
10:00 PM 51.8 °F 50.0 °F 94% 29.95 in 1.6 mi NE 4.6 mph - N/A   Overcast
10:30 PM 51.8 °F 50.0 °F 94% 29.98 in 1.1 mi NNE 3.5 mph - N/A   Mostly Cloudy
11:00 PM 51.8 °F 50.0 °F 94% 29.98 in 1.1 mi Variable 3.5 mph - N/A   Mostly Cloudy
11:30 PM 51.8 °F 50.0 °F 94% 29.98 in 1.3 mi NE 5.8 mph - N/A   Overcast